******************************************************************************* JPL/HORIZONS Catalina (C/2013 US10) 2025-Dec-12 17:49:01 Rec #:90004243 (+COV) Soln.date: 2024-Dec-12_17:11:30 # obs: 4396 (2013-2017) IAU76/J2000 helio. ecliptic osc. elements (au, days, deg., period=Julian yrs): EPOCH= 2457349.5 ! 2015-Nov-23.0000000 (TDB) RMSW= n.a. EC= 1.000280154550372 QR= .8229694542126116 TP= 2457342.2216414325 OM= 186.1445800953977 W= 340.3587546222761 IN= 148.8782967933228 A= -2937.555192732581 MA= 4.5056605385089E-5 ADIST= 9.999999E99 PER= 9.999999E99 N= 6.19E-6 ANGMOM= .022070832 DAN= .84763 DDN= 28.42123 L= 203.1339529 B= -10.0048286 MOID= .13859899 TP= 2015-Nov-15.7216414325 Comet physical (GM= km^3/s^2; RAD= km): GM= n.a. RAD= n.a. M1= 8.5 M2= n.a. k1= 6.25 k2= n.a. PHCOF= n.a. Comet non-gravitational force model (AMRAT=m^2/kg;A1-A3=au/d^2;DT=days;R0=au): AMRAT= 0. DT= 0. A1= 7.567368745804E-9 A2= 6.486925296485E-11 A3= 1.613417267799E-10 Standard model: ALN= .1112620426 NK= 4.6142 NM= 2.15 NN= 5.093 R0= 2.808 COMET comments 1: soln ref.= JPL#85, data arc: 2013-08-14 to 2017-11-16 2: k1=6.25; ******************************************************************************* ******************************************************************************* Ephemeris / WWW_USER Fri Dec 12 17:49:01 2025 Pasadena, USA / Horizons ******************************************************************************* Target body name: Catalina (C/2013 US10) {source: JPL#85} Center body name: Solar System Barycenter (0) {source: DE441} Center-site name: BODY CENTER ******************************************************************************* Start time : A.D. 1600-Jan-01 00:00:00.0000 TDB Stop time : A.D. 2500-Jan-01 00:00:00.0000 TDB Step-size : 900 calendar years ******************************************************************************* Center geodetic : 0.0, 0.0, 0.0 {E-lon(deg),Lat(deg),Alt(km)} Center cylindric: 0.0, 0.0, 0.0 {E-lon(deg),Dxy(km),Dz(km)} Center radii : (undefined) Keplerian GM : 2.9630927493968080E-04 au^3/d^2 Small perturbers: Yes {source: SB441-N16} Output units : AU-D, deg, Julian Day Number (Tp) Calendar mode : Mixed Julian/Gregorian Output type : GEOMETRIC osculating elements Output format : 10 Reference frame : Ecliptic of J2000.0 ******************************************************************************* Initial IAU76/J2000 heliocentric ecliptic osculating elements (au, days, deg.): EPOCH= 2457349.5 ! 2015-Nov-23.0000000 (TDB) RMSW= n.a. EC= 1.000280154550372 QR= .8229694542126116 TP= 2457342.2216414325 OM= 186.1445800953977 W= 340.3587546222761 IN= 148.8782967933228 Equivalent ICRF heliocentric cartesian coordinates (au, au/d): X=-8.166013298200067E-01 Y=-1.331245078832981E-01 Z=-1.082949917902556E-01 VX=-8.295083504662234E-03 VY= 1.435125293136784E-02 VZ= 2.084664304167158E-02 Comet physical (GM= km^3/s^2; RAD= km): GM= n.a. RAD= n.a. M1= 8.5 M2= n.a. k1= 6.25 k2= n.a. PHCOF= n.a. Comet non-gravitational force model (AMRAT=m^2/kg;A1-A3=au/d^2;DT=days;R0=au): AMRAT= 0. DT= 0. A1= 7.567368745804E-9 A2= 6.486925296485E-11 A3= 1.613417267799E-10 Standard model: ALN= .1112620426 NK= 4.6142 NM= 2.15 NN= 5.093 R0= 2.808 ******************************************************************************* JDTDB EC QR IN OM W Tp N MA TA A AD PR ******************************************************************************* $$SOE 2305447.500000000 = A.D. 1600-Jan-01 00:00:00.0000 TDB EC= 9.999568767295058E-01 QR= 8.200379413934251E-01 IN= 1.488360891762372E+02 OM= 1.861057855112042E+02 W = 3.404379591055689E+02 Tp= 2457342.011502645910 N = 3.761073937032157E-07 MA= 3.599428713511609E+02 TA= 1.858532115571530E+02 A = 1.901613518644133E+04 AD= 3.803145033494127E+04 PR= 9.571734191539825E+08 2634166.500000000 = A.D. 2500-Jan-01 00:00:00.0000 TDB EC= 1.000210009545533E+00 QR= 8.203216681373252E-01 IN= 1.488537699944162E+02 OM= 1.862542721740664E+02 W = 3.403704440635468E+02 Tp= 2457342.108530831058 N = 4.039964353084804E-06 MA= 7.143642382913562E-01 TA= 1.743196034567889E+02 A =-3.906116105590326E+03 AD= 9.999999999999998E+99 PR= 9.999999999999998E+99 $$EOE ******************************************************************************* TIME Barycentric Dynamical Time ("TDB" or T_eph) output was requested. This continuous coordinate time is equivalent to the relativistic proper time of a clock at rest in a reference frame co-moving with the solar system barycenter but outside the system's gravity well. It is the independent variable in the solar system relativistic equations of motion. TDB runs at a uniform rate of one SI second per second and is independent of irregularities in Earth's rotation. CALENDAR SYSTEM Mixed calendar mode was active such that calendar dates after AD 1582-Oct-15 (if any) are in the modern Gregorian system. Dates prior to 1582-Oct-5 (if any) are in the Julian calendar system, which is automatically extended for dates prior to its adoption on 45-Jan-1 BC. The Julian calendar is useful for matching historical dates. The Gregorian calendar more accurately corresponds to the Earth's orbital motion and seasons. A "Gregorian-only" calendar mode is available if such physical events are the primary interest. REFERENCE FRAME AND COORDINATES Ecliptic at the standard reference epoch Reference epoch: J2000.0 X-Y plane: adopted Earth orbital plane at the reference epoch Note: IAU76 obliquity of 84381.448 arcseconds wrt ICRF X-Y plane X-axis : ICRF Z-axis : perpendicular to the X-Y plane in the directional (+ or -) sense of Earth's north pole at the reference epoch. Symbol meaning [1 au= 149597870.700 km, 1 day= 86400.0 s]: JDTDB Julian Day Number, Barycentric Dynamical Time EC Eccentricity, e QR Periapsis distance, q (au) IN Inclination w.r.t X-Y plane, i (degrees) OM Longitude of Ascending Node, OMEGA, (degrees) W Argument of Perifocus, w (degrees) Tp Time of periapsis (Julian Day Number) N Mean motion, n (degrees/day) MA Mean anomaly, M (degrees) TA True anomaly, nu (degrees) A Semi-major axis, a (au) AD Apoapsis distance (au) PR Sidereal orbit period (day) ABERRATIONS AND CORRECTIONS Geometric osculating elements have NO corrections or aberrations applied. Computations by ... Solar System Dynamics Group, Horizons On-Line Ephemeris System 4800 Oak Grove Drive, Jet Propulsion Laboratory Pasadena, CA 91109 USA General site: https://ssd.jpl.nasa.gov/ Mailing list: https://ssd.jpl.nasa.gov/email_list.html System news : https://ssd.jpl.nasa.gov/horizons/news.html User Guide : https://ssd.jpl.nasa.gov/horizons/manual.html Connect : browser https://ssd.jpl.nasa.gov/horizons/app.html#/x API https://ssd-api.jpl.nasa.gov/doc/horizons.html command-line telnet ssd.jpl.nasa.gov 6775 e-mail/batch https://ssd.jpl.nasa.gov/ftp/ssd/horizons_batch.txt scripts https://ssd.jpl.nasa.gov/ftp/ssd/SCRIPTS Author : Jon.D.Giorgini@jpl.nasa.gov ******************************************************************************* !$$SOF CENTER = '@0' COMMAND = '2013 US10' OUT_UNITS = 'AU-D' START_TIME = '1600-01-01' STEP_SIZE = '900 years' STOP_TIME = '2500-01-01' TABLE_TYPE = 'ELEMENTS'